CAT,Max TemperatureF,Mean TemperatureF,Min TemperatureF,Max Dew PointF,MeanDew PointF,Min DewpointF,Max Humidity, Mean Humidity, Min Humidity, Max Sea Level PressureIn, Mean Sea Level PressureIn, Min Sea Level PressureIn, Max VisibilityMiles, Mean VisibilityMiles, Min VisibilityMiles, Max Wind SpeedMPH, Mean Wind SpeedMPH, Max Gust SpeedMPH,PrecipitationIn, CloudCover, Events, WindDirDegrees
2012-9-1,93,78,64,44,33,25,38,16,4,30.12,30.06,30.01,12,12,12,15,8,,0.00,,,133
2012-9-2,93,78,62,55,31,25,42,17,4,30.39,30.20,30.12,19,16,12,14,7,,0.00,,,119
2012-9-3,89,66,64,50,48,43,45,37,26,30.18,30.16,30.15,5,5,4,7,5,,0.00,0,,125
2012-9-4,93,76,59,52,42,32,67,26,7,30.18,30.10,30.04,4,3,3,12,8,,0.00,0,,107
2012-9-5,92,79,66,40,39,37,37,20,9,30.12,30.08,30.01,5,5,5,15,8,,0.00,0,,67
2012-9-6,89,72,59,43,40,35,51,30,8,30.12,30.10,30.06,5,5,5,12,5,,0.00,0,,128
2012-9-7,84,70,57,25,14,5,21,10,4,30.24,30.12,30.04,19,19,19,10,7,,0.00,,,152
2012-9-8,86,67,48,39,28,21,40,17,6,30.18,30.10,30.04,19,19,19,9,6,15,0.00,,,220
2012-9-9,89,70,50,55,43,34,58,34,9,30.15,30.09,30.01,19,19,19,12,7,15,0.00,,,184
2012-9-10,92,71,50,41,34,25,50,20,9,30.12,30.08,30.01,19,19,19,6,4,,0.00,,,113
2012-9-11,92,78,64,45,36,28,26,17,6,30.15,30.09,30.04,4,3,3,14,10,,0.00,0,,118
2012-9-12,89,78,66,57,52,45,64,37,17,30.21,30.12,30.06,3,3,2,14,10,,0.00,0,,97
2012-9-13,91,72,53,53,42,34,77,33,8,30.15,30.09,30.04,3,3,3,14,6,,0.00,0,,82
2012-9-14,92,75,64,46,42,37,43,27,9,30.15,30.13,30.12,5,5,5,13,7,,0.00,0,,75
2012-9-15,89,78,68,46,39,34,46,22,7,30.24,30.18,30.12,6,3,2,10,8,,0.00,0,,71
2012-9-16,82,72,64,48,46,45,56,37,18,30.30,30.25,30.15,6,4,4,17,15,,0.00,0,,102
2012-9-17,81,72,64,53,49,46,59,36,22,30.15,30.13,30.12,19,19,19,8,7,,0.00,,,125
2012-9-18,86,68,59,49,47,41,67,42,20,30.21,30.14,30.04,12,12,12,8,6,,0.00,,,117
2012-9-19,90,72,55,43,39,30,58,26,5,30.15,30.10,30.01,12,9,6,13,4,,0.00,,,158
2012-9-20,94,77,60,45,40,37,45,23,8,30.12,30.06,30.01,6,6,6,14,8,,0.00,,,108
2012-9-21,95,78,60,43,40,35,48,22,6,30.09,30.05,29.98,6,6,6,10,8,,0.00,,,62
2012-9-22,95,80,66,48,40,36,40,20,8,30.04,29.99,29.92,6,5,4,9,6,,0.00,4,,49
2012-9-23,93,80,68,45,43,40,37,22,11,30.36,30.09,29.98,4,3,3,6,5,,0.00,6,,282
2012-9-24,96,82,68,46,28,14,21,13,4,30.09,30.03,29.95,16,11,6,16,10,,0.00,,,185
2012-9-25,95,81,68,47,43,36,31,22,12,30.06,30.02,29.95,12,10,9,17,11,,0.00,,,114
2012-9-26,91,81,71,55,54,52,53,38,20,30.15,30.10,30.04,9,9,9,16,10,,0.00,,,92
2012-9-27,93,82,71,55,51,48,57,30,15,30.12,30.08,30.01,12,12,12,13,10,,0.00,,,72
2012-9-28,94,,94,47,47,47,12,12,12,,,,12,12,12,8,8,,0.00,,,-1
2012-9-29,86,76,67,36,26,14,17,9,5,30.09,30.09,30.09,19,19,19,17,14,,0.00,,,190
2012-9-30,92,80,67,41,30,17,17,12,7,30.15,30.10,30.01,16,14,12,13,10,,0.00,,,132